Location: Cabri�res
(43.7840°N, 5.4986°E)
Time: 10:14:50
(UTC+00:00)

Resurs 01 Rocket - Pass Details

Date: 09 April 2020
Orbit: 634 x 644 km, 98.0° (Epoch: 05 June)

Event Time Altitude Azimuth Distance (km) Brightness Sun altitude
Exits shadow 19:17:41 17° 114° (ESE) 1,627 3.0 -11.6°
Maximum altitude 19:20:11 27° 67° (ENE) 1,215 2.7 -12.0°
Drops below altitude 10° 19:23:55 10° 10° (N) 2,035 4.4 -12.6°
Sets 19:26:22 0° 358° (N) 2,950 5.4 -13.0°
